[[{"header":{"parameterUnit":"m.s-1","parameterCategory":1,"la1":30.2991,"la2":30.254,"lo1":-89.0895,"lo2":-89.0444,"dy":0.0017,"dx":0.0017,"nx":28,"ny":28,"refTime":"2023-10-09T09:00:00:Z","depth":0,"parameterNumber":2,"parameterNumberName":"U-component_of_WINDS"},"data":[0,0,0,0,0,0,0,0,0,0,0,0,0,0,0,0,0,0,0,0,0,0,0,0,0,0,0,0,0,0,0,0,0,0,0,0,0,0,0,0,0,0,0,0,0,0,0,0,0,0,0,0,0,0,0,0,0,0,0.8047,0.8048,0,0.8119,0.812,0.812,0.8159,0.8159,0.8159,0.8159,0.8232,0.8233,0.8235,0,0,0,0,0,0,0,0,0,0,0,0,0,0.7944,0.7945,0.8047,0.8048,0.8049,0.8119,0.812,0.8121,0.8159,0.8159,0.8159,0.8159,0.8231,0.8233,0.8235,0,0,0,0,0,0,0,0,0,0,0,0,0,0.7999,0.7946,0.8047,0.8077,0.808,0.8118,0.812,0.8121,0.8159,0.8159,0.8159,0.8159,0.823,0.8233,0.8236,0.825,0,0,0.8244,0.8245,0,0,0,0,0,0,0,0,0.7996,0.8003,0.8071,0.8075,0.8078,0.813,0.811,0.8164,0.8159,0.8129,0.8159,0.8159,0.8198,0.8203,0.8216,0.8254,0.8257,0.8244,0.8246,0.8247,0.8248,0,0,0,0,0,0,0,0.7992,0.8,0.8076,0.8072,0.8077,0.8086,0.8094,0.812,0.8162,0.8131,0.8134,0.8142,0.82,0.8213,0.8218,0.8258,0.8244,0.8247,0.8249,0.825,0.8312,0.8312,0,0,0,0,0,0,0.7984,0.7997,0.8073,0.8078,0.8037,0.8088,0.8097,0.8113,0.8161,0.8169,0.8142,0.8144,0.8209,0.8215,0.8221,0.8242,0.8247,0.825,0.8251,0.8312,0.8312,0.8312,0,0,0,0,0,0,0.7981,0.799,0.807,0.8038,0.8049,0.809,0.8108,0.8115,0.8129,0.817,0.8177,0.8149,0.8209,0.8217,0.8243,0.8245,0.8251,0.8254,0.8312,0.8312,0.8312,0.8283,0,0,0,0,0,0,0.7978,0.7989,0.7995,0.8038,0.8051,0.8091,0.8108,0.8116,0.8133,0.8136,0.8178,0.8185,0.821,0.8239,0.8246,0.8249,0.8256,0.8312,0.8312,0.8312,0.8284,0.8282,0.8281,0,0,0,0,0,0.7974,0.7984,0.7995,0.8004,0.8059,0.8091,0.8098,0.8127,0.8133,0.814,0.8166,0.8183,0.8243,0.8241,0.8249,0.8253,0.8312,0.8312,0.8312,0.8285,0.8283,0.8281,0,0,0,0,0,0,0.7939,0.799,0.8003,0.8027,0.8054,0.8098,0.8107,0.8124,0.815,0.8152,0.8186,0.8195,0.8218,0.8238,0.8234,0.827,0.828,0.8281,0.8256,0.8255,0.8253,0.8248,0.8258,0,0,0,0,0,0.7934,0.7957,0.7999,0.8016,0.803,0.8065,0.8081,0.8101,0.8131,0.8142,0.8171,0.8199,0.8225,0.8241,0.8266,0.8287,0.8297,0.8294,0.8293,0.8291,0.8292,0.8306,0.8305,0.8312,0.8312,0.8312,0,0,0.7924,0.7955,0.7967,0.801,0.8034,0.8056,0.8075,0.8098,0.8115,0.8146,0.8172,0.8194,0.8228,0.8252,0.8264,0.827,0.8292,0.8291,0.8289,0.8291,0.8306,0.8305,0.8304,0.8312,0.8312,0.8312,0,0,0.7918,0.7943,0.796,0.7984,0.802,0.8044,0.8048,0.8089,0.8105,0.8132,0.8156,0.8177,0.8219,0.8243,0.8261,0.8264,0.8281,0.8271,0.8262,0.8275,0.8274,0.8274,0.8276,0.8276,0.8272,0.8272,0.8272,0,0.7901,0.7936,0.7966,0.7988,0.8007,0.8036,0.8054,0.8076,0.8118,0.813,0.8136,0.8191,0.8216,0.8246,0.8247,0.826,0.8266,0.8267,0.8272,0.8272,0.8272,0.8274,0.8275,0.827,0.8271,0.8271,0.8271,0,0.7913,0.7937,0.7947,0.7988,0.8007,0.8027,0.8061,0.8077,0.8095,0.8118,0.8146,0.8177,0.821,0.8218,0.8236,0.8251,0.8254,0.8265,0.8275,0.8269,0.8272,0.8273,0.8268,0.8269,0.8269,0.827,0,0,0.7887,0.7945,0.7948,0.7967,0.801,0.8029,0.805,0.8082,0.8096,0.8124,0.8143,0.8179,0.819,0.821,0.823,0.8242,0.8243,0.8252,0.8253,0.825,0.8263,0.8254,0.8255,0.8255,0.8255,0.8255,0.826,0,0.7887,0.7926,0.7955,0.7983,0.8006,0.8035,0.8053,0.8081,0.8104,0.8127,0.8151,0.8177,0.8189,0.8201,0.8213,0.824,0.8246,0.824,0.8273,0.8274,0.8264,0.8256,0.8247,0.8251,0.8261,0.8262,0.8262,0,0.7892,0.792,0.7951,0.7992,0.8003,0.8019,0.8051,0.8072,0.8105,0.8121,0.8143,0.8164,0.8188,0.8196,0.8229,0.8224,0.8239,0.8255,0.8255,0.826,0.8267,0.8261,0.8252,0.8253,0.8263,0.8263,0.8263,0,0.787,0.7916,0.7941,0.7956,0.8004,0.8015,0.8035,0.8068,0.8086,0.8114,0.8127,0.8157,0.8174,0.8197,0.8226,0.8229,0.8257,0.8267,0.8271,0.827,0.8276,0.8275,0.827,0.8284,0.8284,0.8284,0.8284,0,0.7868,0.7886,0.7932,0.7947,0.7968,0.8001,0.8021,0.8044,0.8073,0.8093,0.8119,0.8138,0.8175,0.8198,0.8221,0.8246,0.8253,0.8266,0.8272,0.8264,0.8263,0.8275,0.8276,0.8284,0.8284,0.8284,0.8284,0,0.7848,0.7879,0.7908,0.7951,0.7963,0.7976,0.8013,0.8029,0.8053,0.8079,0.8087,0.8124,0.8153,0.8184,0.8223,0.8239,0.8262,0.827,0.8251,0.8255,0.8258,0.8257,0.8261,0.8263,0.8275,0.8275,0.8275,0,0.7844,0.7859,0.7904,0.792,0.794,0.7964,0.7983,0.8016,0.8034,0.8073,0.8084,0.8115,0.8141,0.8185,0.8216,0.8246,0.8256,0.8255,0.8261,0.8252,0.8257,0.8256,0.8258,0.8253,0.8253,0.8253,0.8253,0,0.7835,0.785,0.7876,0.7908,0.793,0.7956,0.7984,0.7995,0.8033,0.8053,0.8082,0.8103,0.8143,0.8173,0.8207,0.8228,0.8247,0.8251,0.8253,0.8246,0.8234,0.8241,0.8247,0.8251,0.8251,0.8251,0.8251,0.8251,0.7824,0.7839,0.7873,0.7901,0.7926,0.7951,0.7968,0.7995,0.802,0.8056,0.8073,0.8103,0.8136,0.8184,0.8204,0.8228,0.8234,0.8237,0.8239,0.8239,0.8237,0.823,0.8234,0.8234,0.8234,0.8234,0.8234,0,0.7817,0.7841,0.7866,0.7904,0.7927,0.7943,0.7974,0.7992,0.8018,0.8047,0.8072,0.8107,0.8136,0.817,0.8201,0.8214,0.8224,0.8221,0.8221,0.8226,0.823,0.8225,0.8213,0.8213,0.8213,0.8213,0.8213,0.8213,0.7816,0.7842,0.7861,0.7899,0.7923,0.7953,0.7969,0.7993,0.8016,0.8054,0.8079,0.81,0.8131,0.8166,0.8194,0.8203,0.8213,0.8209,0.822,0.8224,0.8225,0.8227,0.8222,0.8211,0.8211,0.8215,0.8215,0.8215]},{"header":{"parameterUnit":"m.s-1","parameterCategory":1,"la1":30.2991,"la2":30.254,"lo1":-89.0895,"lo2":-89.0444,"dy":0.0017,"dx":0.0017,"nx":28,"ny":28,"refTime":"2023-10-09T09:00:00:Z","depth":0,"parameterNumber":3,"parameterNumberName":"V-component_of_WINDS"},"data":[0,0,0,0,0,0,0,0,0,0,0,0,0,0,0,0,0,0,0,0,0,0,0,0,0,0,0,0,0,0,0,0,0,0,0,0,0,0,0,0,0,0,0,0,0,0,0,0,0,0,0,0,0,0,0,0,0,0,-0.8178,-0.8179,0,-0.8209,-0.821,-0.821,-0.8214,-0.8214,-0.8214,-0.8214,-0.8245,-0.8246,-0.8247,0,0,0,0,0,0,0,0,0,0,0,0,0,-0.8124,-0.8125,-0.8178,-0.8179,-0.8179,-0.8209,-0.821,-0.821,-0.8215,-0.8214,-0.8214,-0.8214,-0.8245,-0.8246,-0.8247,0,0,0,0,0,0,0,0,0,0,0,0,0,-0.815,-0.8125,-0.8178,-0.8185,-0.8186,-0.8209,-0.821,-0.821,-0.8215,-0.8214,-0.8214,-0.8213,-0.8244,-0.8246,-0.8248,-0.8266,0,0,-0.8253,-0.8253,0,0,0,0,0,0,0,0,-0.8149,-0.8152,-0.8184,-0.8185,-0.8186,-0.8208,-0.8202,-0.8229,-0.8215,-0.8204,-0.8214,-0.8213,-0.8233,-0.8236,-0.8242,-0.8267,-0.8269,-0.8253,-0.8254,-0.8254,-0.8255,0,0,0,0,0,0,0,-0.8147,-0.8151,-0.8191,-0.8184,-0.8185,-0.8187,-0.819,-0.8207,-0.822,-0.8205,-0.8205,-0.8209,-0.8233,-0.8241,-0.8243,-0.8269,-0.8253,-0.8254,-0.8255,-0.8256,-0.8311,-0.8311,0,0,0,0,0,0,-0.8144,-0.8149,-0.819,-0.8192,-0.8166,-0.8188,-0.8192,-0.8201,-0.822,-0.8223,-0.8209,-0.8209,-0.8238,-0.8241,-0.8244,-0.8267,-0.8254,-0.8256,-0.8257,-0.831,-0.8311,-0.8312,0,0,0,0,0,0,-0.8143,-0.8147,-0.8188,-0.8171,-0.8176,-0.8189,-0.82,-0.8202,-0.8209,-0.8223,-0.8226,-0.8214,-0.8238,-0.8242,-0.826,-0.8268,-0.8257,-0.8258,-0.831,-0.8311,-0.8311,-0.8312,0,0,0,0,0,0,-0.8141,-0.8147,-0.8154,-0.8171,-0.8177,-0.8204,-0.82,-0.8203,-0.8212,-0.8212,-0.8229,-0.8231,-0.8238,-0.8258,-0.8262,-0.827,-0.8259,-0.8309,-0.831,-0.8311,-0.8311,-0.8313,-0.8314,0,0,0,0,0,-0.8139,-0.8153,-0.8154,-0.8159,-0.8186,-0.8205,-0.8208,-0.8216,-0.8212,-0.822,-0.8229,-0.823,-0.8266,-0.826,-0.8265,-0.8273,-0.8309,-0.831,-0.8311,-0.8311,-0.8313,-0.8314,0,0,0,0,0,0,-0.8137,-0.8155,-0.8157,-0.8177,-0.8189,-0.8205,-0.8215,-0.8217,-0.8231,-0.823,-0.8239,-0.8243,-0.8261,-0.8269,-0.8261,-0.8292,-0.8287,-0.8289,-0.8286,-0.8287,-0.8288,-0.8286,-0.8261,0,0,0,0,0,-0.8139,-0.8153,-0.8168,-0.8184,-0.819,-0.8201,-0.821,-0.8215,-0.8228,-0.8233,-0.8243,-0.8256,-0.827,-0.8279,-0.8293,-0.8313,-0.8316,-0.8321,-0.8322,-0.8323,-0.8324,-0.8335,-0.8337,-0.8315,-0.8315,-0.8315,0,0,-0.8143,-0.8155,-0.8163,-0.8184,-0.8194,-0.8208,-0.8206,-0.822,-0.8231,-0.8235,-0.8253,-0.8261,-0.8276,-0.8295,-0.8304,-0.8302,-0.8331,-0.8324,-0.8325,-0.8326,-0.8337,-0.8339,-0.834,-0.8316,-0.8316,-0.8316,0,0,-0.8157,-0.8168,-0.8182,-0.8192,-0.8207,-0.8215,-0.8218,-0.8234,-0.824,-0.8258,-0.8262,-0.8274,-0.8298,-0.8308,-0.8317,-0.8335,-0.8336,-0.8339,-0.8345,-0.8355,-0.8357,-0.8359,-0.8365,-0.8367,-0.834,-0.834,-0.834,0,-0.8161,-0.8181,-0.8189,-0.8204,-0.8213,-0.8217,-0.8232,-0.8241,-0.826,-0.8266,-0.8264,-0.8294,-0.8305,-0.8326,-0.833,-0.8337,-0.8341,-0.8337,-0.8356,-0.8358,-0.8359,-0.8365,-0.8368,-0.8341,-0.8341,-0.8341,-0.8341,0,-0.8184,-0.8199,-0.8209,-0.8227,-0.8237,-0.8251,-0.8261,-0.8271,-0.8274,-0.8282,-0.8301,-0.8313,-0.8329,-0.8335,-0.8339,-0.8357,-0.8355,-0.8354,-0.835,-0.8362,-0.8367,-0.837,-0.8341,-0.8341,-0.8341,-0.8341,0,0,-0.8198,-0.822,-0.8224,-0.8232,-0.8249,-0.826,-0.8275,-0.8291,-0.8298,-0.8311,-0.8324,-0.8344,-0.8343,-0.8353,-0.8358,-0.8367,-0.838,-0.8365,-0.8366,-0.8367,-0.84,-0.84,-0.8403,-0.8382,-0.8382,-0.8382,-0.8399,0,-0.8214,-0.8241,-0.8248,-0.827,-0.8283,-0.8288,-0.83,-0.8312,-0.832,-0.8332,-0.834,-0.8354,-0.8353,-0.8358,-0.8368,-0.8377,-0.8387,-0.8376,-0.8393,-0.8393,-0.8389,-0.8406,-0.8406,-0.8421,-0.8401,-0.8402,-0.8402,0,-0.8237,-0.825,-0.8273,-0.8288,-0.8294,-0.8305,-0.832,-0.8332,-0.8345,-0.835,-0.8361,-0.8365,-0.838,-0.8375,-0.8396,-0.8388,-0.8396,-0.8401,-0.8402,-0.8404,-0.8398,-0.8408,-0.8426,-0.8429,-0.8406,-0.8405,-0.8405,0,-0.8244,-0.8268,-0.8285,-0.8291,-0.831,-0.8317,-0.8325,-0.8338,-0.8347,-0.836,-0.8366,-0.8381,-0.8389,-0.84,-0.8408,-0.8404,-0.8428,-0.8424,-0.8432,-0.8432,-0.8437,-0.8437,-0.8457,-0.8443,-0.8442,-0.8442,-0.8442,0,-0.8261,-0.8275,-0.8288,-0.8299,-0.8314,-0.8323,-0.8338,-0.8346,-0.8357,-0.8369,-0.8374,-0.8385,-0.8395,-0.8408,-0.8414,-0.843,-0.8434,-0.8438,-0.844,-0.8438,-0.8437,-0.8442,-0.8441,-0.8443,-0.8443,-0.8443,-0.8443,0,-0.8272,-0.8281,-0.83,-0.8316,-0.832,-0.8331,-0.8344,-0.8354,-0.8362,-0.8377,-0.8381,-0.8393,-0.8407,-0.8417,-0.8435,-0.844,-0.8457,-0.8459,-0.8453,-0.8453,-0.8461,-0.846,-0.8485,-0.8489,-0.8472,-0.8473,-0.8473,0,-0.8282,-0.8293,-0.831,-0.8318,-0.8326,-0.8339,-0.8348,-0.8357,-0.8366,-0.8382,-0.839,-0.8405,-0.8418,-0.8441,-0.8452,-0.8466,-0.8467,-0.8475,-0.847,-0.8467,-0.8467,-0.8466,-0.8467,-0.8476,-0.8476,-0.8476,-0.8476,0,-0.8299,-0.8303,-0.8316,-0.833,-0.8341,-0.8353,-0.8365,-0.8371,-0.8382,-0.8392,-0.8407,-0.8417,-0.8436,-0.8451,-0.8466,-0.8474,-0.8477,-0.8478,-0.8481,-0.8479,-0.8475,-0.8476,-0.8455,-0.8477,-0.8477,-0.8477,-0.8477,-0.8477,-0.831,-0.8319,-0.8332,-0.8347,-0.8356,-0.8367,-0.8377,-0.8386,-0.8399,-0.8415,-0.842,-0.8435,-0.8448,-0.8469,-0.8477,-0.849,-0.8489,-0.8492,-0.8493,-0.8494,-0.8494,-0.8473,-0.8493,-0.8493,-0.8493,-0.8493,-0.8493,0,-0.8326,-0.8335,-0.8348,-0.8364,-0.8375,-0.8377,-0.839,-0.8399,-0.8413,-0.8425,-0.8437,-0.8454,-0.8469,-0.848,-0.8495,-0.8503,-0.8504,-0.8506,-0.8505,-0.8507,-0.8494,-0.8491,-0.8504,-0.8504,-0.8504,-0.8504,-0.8504,-0.8504,-0.8336,-0.8353,-0.8358,-0.838,-0.8388,-0.8404,-0.8411,-0.8421,-0.843,-0.8449,-0.8461,-0.8469,-0.848,-0.8496,-0.8509,-0.8512,-0.8517,-0.8518,-0.8522,-0.8509,-0.8508,-0.8507,-0.8503,-0.852,-0.852,-0.8533,-0.8533,-0.8534]}]]